Location: Benedenknijpe
(52.9667°N, 5.9667°E)
Time: 22:00:08
(UTC+00:00)

Daily predictions for brighter satellites

Satellite Brightness Start Highest point End
(mag) Time Altitude Azimuth Time Altitude Azimuth Time Altitude Azimuth
COSMOS 2455 4.5 15:57:19 10° SE 16:00:42 16° ESE 16:04:06 10° ENE
Cosmos 1408 Rocket 3.5 15:57:14 10° N 16:01:35 66° ENE 16:05:56 10° SSE
Cosmos 1606 2.8 15:58:21 10° S 16:02:01 53° E 16:05:45 10° NNE
Cosmos 1340 Rocket 3.1 15:58:04 10° N 16:02:03 49° ENE 16:06:01 10° SSE
USA 308 2.9 15:58:05 10° WSW 16:02:22 89° NNE 16:06:38 10° ENE
CZ-2C R/B 4.4 16:01:41 10° ENE 16:02:32 10° E 16:03:25 10° E
GEOS 3 Rocket 4.5 15:58:50 10° E 16:03:20 31° NNE 16:07:49 10° NW
CZ-4C R/B 3.4 16:00:44 10° NNE 16:04:37 57° ESE 16:08:16 10° S
ERBS 2.1 16:01:49 10° WSW 16:05:01 90° SSE 16:08:15 10° ENE
MOS 1 Rocket 3.5 16:00:20 10° NNE 16:05:29 88° WNW 16:10:16 10° SSW
Cosmos 2360 4.3 16:00:55 10° NNW 16:06:38 59° NE 16:12:16 10° SE
CZ-2C R/B 2.9 16:02:49 10° SSE 16:07:38 65° ENE 16:12:21 10° N
deb Kosmos-1763 3.8 16:04:36 10° SSW 16:08:00 79° ESE 16:11:26 10° NNE
CZ-4B R/B 4.1 16:04:17 10° ESE 16:08:31 24° NE 16:12:42 10° N
NOSS 2-1 (E) 3.0 16:05:48 10° SW 16:09:01 69° NW 16:12:34 10° NE
Cosmos 1500 4.5 16:06:28 10° NNE 16:09:18 20° ENE 16:12:06 10° ESE
Meteor 1-20 Rocket 4.5 16:04:15 10° N 16:09:57 52° ENE 16:15:39 10° SSE
Cosmos 1743 Rocket 3.8 16:05:50 10° N 16:10:01 45° ENE 16:14:11 10° SSE
NOSS 2-2 (C) 4.1 16:05:50 10° NW 16:10:23 59° NE 16:16:43 10° ESE
Lacrosse 5 rocket 1.5 16:06:55 10° WNW 16:10:37 48° N 16:14:31 10° E
Cosmos-2242 4.3 16:07:49 10° SW 16:11:52 40° WNW 16:15:55 10° N
Okean O Rocket 3.0 16:13:50 10° E 16:16:49 18° NE 16:19:48 10° NNE
USA 267 3.8 16:14:03 10° ENE 16:20:18 46° SE 16:26:32 10° SSW
Cosmos 2360 Rocket 3.8 16:18:28 10° NNW 16:22:07 17° NNE 16:25:23 11° ENE
SJ 16-02 3.7 16:19:51 10° NW 16:23:38 29° WSW 16:27:23 10° SSW
H-2A R/B 2.6 16:20:58 10° SE 16:25:34 34° ENE 16:30:05 10° N
Cosmos 1763 Rocket 3.8 16:23:56 10° S 16:28:44 45° ESE 16:33:36 10° NE
USA 305 2.9 16:24:44 10° W 16:28:59 79° N 16:32:46 13° E
Cosmos 1656 4.5 16:23:59 10° NW 16:29:24 57° WSW 16:34:51 10° S
CZ-4B R/B 2.8 16:25:47 10° SSE 16:29:47 89° WSW 16:33:38 10° NNW
USA 229 DEB 4.2 16:27:11 10° NW 16:34:24 73° SW 16:42:07 10° SSE
USA 229 4.2 16:27:17 10° NW 16:34:30 73° SW 16:42:13 10° SSE
Cosmos 1933 3.9 16:31:13 10° SSE 16:34:55 35° E 16:38:37 10° NNE
Cosmos 1937 Rocket 3.5 16:30:27 10° NNW 16:35:48 72° ENE 16:41:07 10° SSE
PSLV R/B 4.1 16:32:31 10° SE 16:35:58 39° ENE 16:39:30 10° N
Cosmos 1464 Rocket 4.1 16:30:39 10° S 16:37:02 87° W 16:43:28 10° N
SL-16 R/B 4.4 16:33:30 10° N 16:38:16 24° NW 16:43:03 10° W
Cosmos 1500 Rocket 3.6 16:34:07 10° N 16:38:36 88° E 16:43:01 10° S
Spot 1 4.3 16:33:58 10° NNE 16:38:38 75° ESE 16:43:32 10° S
Cosmos 1666 3.8 16:35:50 10° NNE 16:38:50 22° ENE 16:41:50 10° ESE
Cosmos 1461 4.3 16:36:25 10° W 16:40:00 27° NNW 16:43:20 11° NNE
Nadezhda 4 Rocket 4.2 16:33:57 10° NNW 16:40:19 80° W 16:46:38 10° S
SeaSat 1 3.6 16:36:42 10° NNE 16:41:14 37° NW 16:45:45 10° WSW
NOSS 3-4 (A) 4.5 16:35:52 10° WNW 16:41:32 34° N 16:46:32 15° ENE
SL-24 R/B - RUBIN 2 3.5 16:36:51 10° NW 16:41:34 76° NE 16:45:55 10° SE
NOSS 3-4 (C) 4.5 16:35:58 10° WNW 16:41:37 34° N 16:46:37 15° ENE
Cosmos 2322 Rocket 3.3 16:38:05 10° NNW 16:42:42 24° NE 16:45:58 15° ENE
ATLAS 2AS CENTAUR R/B 3.7 16:36:51 10° W 16:44:04 40° NNW 16:50:01 14° NE
Cosmos 1697 Rocket 2.9 16:39:29 10° NNW 16:45:08 78° WSW 16:50:44 10° SSE
Cosmos 372 Rocket 4.0 16:41:49 10° NNW 16:47:00 60° ENE 16:52:12 10° SE
FengYun 1-2 T 4.4 16:41:56 10° SSE 16:47:32 83° WSW 16:53:07 10° NNW
Sich 1 3.0 16:44:06 10° N 16:48:20 55° ENE 16:52:33 10° SSE
Cosmos 1980 Rocket 2.1 16:43:47 10° NNW 16:49:29 68° NE 16:55:06 10° SE
NOSS 2-1 (C) 4.1 16:47:20 10° W 16:50:20 33° NNW 16:52:48 15° NNE
Cosmos 1805 Rocket 3.4 16:46:00 10° N 16:50:21 72° ENE 16:54:41 10° SSE
NOAA 6 4.0 16:45:45 10° SSE 16:50:53 89° ENE 16:56:03 10° NNW
Cosmos 2369 3.7 16:45:37 10° NNW 16:51:24 84° ENE 16:57:08 10° SSE
Cosmos 2221 3.1 16:48:57 10° SSW 16:53:10 58° WNW 16:57:27 10° N
CZ-4C R/B 2.9 16:49:06 10° NW 16:55:55 75° NE 17:04:08 10° SE
Cosmos 1092 Rocket 4.0 16:49:49 10° N 16:56:14 84° E 17:02:35 10° S
USA 234 3.8 16:49:55 10° SE 16:56:23 62° SW 17:02:52 10° WNW
Cosmos 1842 Rocket 4.1 16:53:38 10° SSW 16:58:03 61° WNW 17:02:31 10° N
Cosmos 1428 Rocket 4.4 16:52:49 10° N 16:58:59 78° ENE 17:05:09 10° SSE
NOSS 2-1 (D) 4.3 16:56:46 10° W 16:59:42 30° NNW 17:01:52 17° NNE
SL-16 R/B 2.9 16:55:37 10° NNW 17:00:46 34° NE 17:04:15 18° E
USA 306 2.9 16:56:50 10° W 17:01:06 76° N 17:03:36 24° E
Cosmos 1812 3.6 16:58:40 10° SSE 17:01:58 27° E 17:02:43 25° ENE
Meteor 1-25 Rocket 4.4 16:56:25 10° NNW 17:01:59 76° W 17:07:35 10° S
ISS -2.6 16:58:52 10° W 17:02:06 42° SSW 17:04:59 12° SE
Cosmos 2237 Rocket 4.2 17:00:33 10° NNW 17:02:55 12° N 17:05:11 10° NNE
MOS 1-B Rocket 4.4 16:57:50 10° NNE 17:03:23 42° E 17:09:33 10° S
NOSS 2-2 (D) 4.3 16:58:48 10° NW 17:03:40 79° SW 17:10:30 10° SE
deb Chang Zheng 4 3.8 17:02:09 10° SE 17:06:17 46° ENE 17:10:26 10° N
SMAP 3.4 17:02:17 10° S 17:06:55 67° WSW 17:11:35 10° NNW
Cosmos 2082 Rocket 2.8 17:02:34 10° S 17:07:45 37° ESE 17:10:43 22° ENE
Cosmos 1939 Rocket 3.6 17:04:06 10° S 17:08:09 57° W 17:12:11 10° NNW
CORIOLIS 4.4 17:04:29 10° S 17:09:53 75° WSW 17:15:22 10° NNW
Cosmos 44 Rocket 3.4 17:06:07 10° NW 17:11:03 56° NE 17:14:23 19° ESE
Cosmos 2333 Rocket 3.6 17:07:09 10° NNW 17:11:16 19° NNE 17:12:25 18° NE
Meteor 2-16 Rocket 4.4 17:06:45 10° N 17:12:49 60° ENE 17:18:51 10° SSE
Cosmos 2278 3.6 17:09:44 10° NNW 17:15:29 76° ENE 17:21:11 10° SE
Cosmos 1602 4.2 17:11:45 10° NNW 17:15:34 62° W 17:19:22 10° S
CZ-4B DEB 4.4 17:10:45 10° SSE 17:16:16 76° WSW 17:21:47 10° NNW
USA 307 2.8 17:15:35 10° W 17:19:52 77° N 17:21:38 35° E
SL-16 R/B 4.3 17:19:11 10° NNW 17:21:44 13° N 17:24:18 10° NNE
Cosmos 540 Rocket 3.4 17:17:34 10° SSW 17:22:38 71° ESE 17:26:07 21° NNE
H-2A R/B 4.2 17:25:03 17° NNE 17:25:03 17° NNE 17:26:16 10° N
COSMO-SKYMED 1 3.0 17:23:23 33° ENE 17:24:34 40° E 17:28:39 10° SSE
Cosmos 2298 Rocket 4.2 17:20:15 10° NNW 17:25:24 47° NE 17:28:50 20° ESE
ARGOS 3.1 17:21:02 10° SSE 17:26:23 65° ENE 17:31:45 10° N
Cosmos 2279 Rocket 4.0 17:21:40 10° SSE 17:27:42 55° E 17:33:43 10° NNE
Cosmos 2266 Rocket 4.3 17:22:00 10° N 17:28:06 45° ENE 17:34:14 10° SE
COSMOS 2406 3.1 17:22:36 10° SSW 17:28:21 77° ESE 17:32:09 22° NE
Cosmos 1833 Rocket 2.7 17:24:01 10° SSW 17:29:39 86° WNW 17:33:42 20° NNE
Cosmos 1782 2.7 17:26:58 10° S 17:30:58 88° ESE 17:33:48 19° NNE
ATLAS 5 CENTAUR R/B 2.3 17:22:41 10° NW 17:31:47 76° NNE 17:33:08 38° ESE
Cosmos 1814 Rocket 4.3 17:27:18 10° S 17:32:14 44° ESE 17:33:44 35° ENE
Cosmos 1633 Rocket 2.9 17:29:09 10° N 17:33:32 73° ENE 17:37:55 10° SSE
Cosmos 1818 3.5 17:29:32 10° NW 17:35:04 78° NE 17:38:50 21° SE
ATLAS CENTAUR R/B 3.3 17:32:32 10° WNW 17:36:04 23° NNW 17:37:49 18° NNE
Cosmos 2219 Rocket 3.6 17:32:15 10° NNW 17:36:26 20° NNE 17:36:27 20° NNE
Cosmos 468 Rocket 4.4 17:32:13 10° SW 17:37:20 62° WNW 17:41:28 16° NNE
YAOGAN 1 3.1 17:39:35 38° NE 17:39:35 38° NE 17:42:53 10° N
GEOS 3 Rocket 3.5 17:37:58 27° ESE 17:40:53 72° NE 17:46:05 10° NW
ERBS 3.0 17:38:06 10° WNW 17:41:01 39° NNW 17:41:01 39° NNW
CZ-2D R/B 4.2 17:37:54 10° S 17:41:38 49° W 17:45:22 10° NNW
USA 308 2.8 17:38:07 10° W 17:42:23 80° N 17:43:13 56° E
Meteor 2-6 Rocket 4.3 17:37:02 10° SSE 17:42:33 50° E 17:45:14 28° NE
CZ-2C R/B 2.5 17:40:35 22° NNE 17:43:59 61° E 17:49:06 10° S
SJ-11-01 4.2 17:39:34 10° SSE 17:44:20 87° ENE 17:49:07 10° NNW
Cosmos 1634 Rocket 4.1 17:38:20 10° SSW 17:44:41 81° WNW 17:51:03 10° N
Cosmos 1500 4.3 17:41:28 10° NNW 17:45:03 43° W 17:48:36 10° SSW
COSMOS 2455 2.8 17:39:37 10° SSW 17:45:36 70° ESE 17:48:14 35° NE
CZ-4B R/B 3.3 17:43:12 10° S 17:48:37 74° WSW 17:53:59 10° NNW
SKYMED 3 4.5 17:47:47 49° NE 17:48:47 66° ESE 17:53:06 10° S
Lacrosse 5 rocket 1.2 17:46:01 10° WNW 17:49:55 78° SSW 17:50:36 59° SE
Cosmos 1151 Rocket 2.9 17:45:40 10° S 17:50:00 77° E 17:51:27 41° NNE
Spot 2 4.5 17:46:44 13° SE 17:51:18 59° ENE 17:56:20 10° N
Okean O Rocket 1.7 17:48:10 10° SSE 17:52:38 81° WSW 17:57:08 10° NNW
IRS-1C Rocket 4.4 17:54:34 44° NE 17:54:34 44° NE 17:59:16 10° N
Cosmos 2237 4.4 17:51:28 10° NNW 17:57:02 48° NE 17:57:31 47° ENE
CZ-4 R/B 3.2 17:59:39 21° N 17:59:39 21° N 18:01:03 10° N
Cosmos 1666 Rocket 4.2 17:54:57 10° NNW 17:59:19 56° W 18:03:38 10° S
Meteor 2-15 4.4 17:54:01 10° S 17:59:59 59° E 18:03:28 25° NNE
Cosmos 2208 Rocket 4.1 17:56:08 10° S 18:01:23 55° ESE 18:01:39 54° E
Meteor 1-11 Rocket 3.6 17:55:52 10° N 18:01:27 64° ENE 18:05:45 18° SSE
Cosmos 1470 Rocket 3.4 17:58:08 10° N 18:02:37 84° E 18:07:05 10° SSE
Cosmos 2150 Rocket 3.8 17:57:44 10° NNW 18:02:57 78° ENE 18:04:48 41° SE
USA 267 3.2 18:01:03 40° ENE 18:03:42 85° NNW 18:10:15 10° WSW
Meteor 1-10 Rocket 4.2 17:58:48 10° S 18:04:25 55° E 18:04:52 54° ENE
Cosmos 1655 Rocket 3.9 17:58:09 10° N 18:04:36 78° ENE 18:10:59 10° SSE
H-2A R/B 3.2 18:00:02 10° S 18:04:56 43° W 18:09:45 10° NNW
Landsat 5 4.4 18:08:42 37° S 18:08:42 37° S 18:11:11 10° S
Cosmos 1328 Rocket 3.4 18:03:05 10° S 18:07:30 83° ESE 18:07:30 83° ESE
Cosmos 2360 Rocket 2.6 18:02:13 10° NNW 18:07:10 43° NNE 18:07:10 43° NNE
USA 305 2.8 18:04:42 10° WNW 18:08:46 81° W 18:08:46 81° W
SKYMED 2 3.6 18:12:01 59° N 18:12:45 76° WNW 18:17:05 10° SSW
Cosmos 1666 4.1 18:11:02 10° NNW 18:14:30 36° W 18:17:55 10° SSW
Cosmos 2180 Rocket 4.4 18:10:05 10° S 18:16:26 90° E 18:22:45 10° N
Cosmos 841 Rocket 3.9 18:11:46 10° SW 18:16:52 60° WNW 18:18:54 35° N
COSMOS 2428 4.1 18:12:21 10° NNW 18:15:41 23° NNE 18:15:41 23° NNE
Feng Yun 1-1 Rocket 4.4 18:12:09 10° SSE 18:18:05 80° WSW 18:23:58 10° NNW
Meteor 2-8 Rocket 4.4 18:13:51 10° S 18:20:01 88° W 18:26:09 10° N
ATLAS CENTAUR R/B 2.2 18:13:41 10° WSW 18:20:43 79° WNW 18:20:43 79° WNW
Cosmos 1125 Rocket 3.4 18:15:46 10° NNW 18:21:02 84° WSW 18:22:14 55° SSE
Cosmos 2322 Rocket 2.0 18:21:54 10° NNW 18:27:39 81° ENE 18:27:49 80° E
Cosmos 1980 Rocket 4.2 18:28:24 10° NW 18:33:02 26° WSW 18:37:37 10° SSW
NOSS 3-4 (A) 4.0 18:27:28 10° NW 18:33:51 49° NNE 18:33:58 49° NNE
NOSS 3-4 (C) 4.0 18:27:34 10° NW 18:33:56 49° NNE 18:34:03 49° NNE
ATLAS 2AS CENTAUR R/B 3.5 18:29:44 10° NW 18:36:47 39° NNE 18:37:27 38° NNE
Cosmos 1812 4.4 18:34:09 10° SW 18:37:37 31° WNW 18:37:47 31° WNW
ISS -0.7 18:36:37 10° WSW 18:37:59 13° SW 18:37:59 13° SW
USA 306 4.1 18:36:47 10° WNW 18:39:35 39° W 18:39:35 39° W
CZ-4C R/B 4.1 18:37:46 10° NW 18:44:25 41° WSW 18:52:04 10° S
SL-16 R/B 2.5 18:39:39 10° NW 18:45:16 64° WSW 18:46:11 55° SSW
Cosmos 2237 Rocket 4.2 18:45:05 10° NNW 18:47:00 17° N 18:47:00 17° N
Cosmos 2082 Rocket 2.9 18:46:12 10° SW 18:51:43 51° NW 18:52:35 46° NNW
Cosmos 2333 Rocket 3.4 18:51:13 10° NNW 18:54:26 32° N 18:54:26 32° N
COSMO-SKYMED 1 4.3 19:00:36 30° WNW 19:00:37 30° WNW 19:04:24 10° WSW
SL-16 R/B 4.5 19:04:56 10° NNW 19:06:16 13° N 19:06:16 13° N
Cosmos 1833 Rocket 4.4 19:09:48 10° W 19:14:25 25° NW 19:15:24 24° NNW
ATLAS CENTAUR R/B 4.2 19:12:56 10° NW 19:13:56 14° NNW 19:13:56 14° NNW
Cosmos 2219 Rocket 3.9 19:15:55 10° NNW 19:18:11 24° NNW 19:18:11 24° NNW
CZ-2C R/B 4.4 19:22:07 22° NNW 19:23:57 27° WNW 19:28:12 10° WSW
Lacrosse 5 rocket 4.4 19:25:38 10° W 19:26:12 13° W 19:26:12 13° W
COSMOS 2455 4.0 19:26:23 10° WSW 19:31:24 37° NW 19:31:24 37° NW
USA 267 4.1 19:48:24 46° WNW 19:48:24 46° WNW 19:53:00 10° W
Cosmos 2360 Rocket 4.1 19:46:20 10° NW 19:48:57 26° NW 19:48:57 26° NW
Cosmos 2322 Rocket 4.5 20:06:50 10° NW 20:09:40 20° W 20:09:40 20° W
ATLAS 2AS CENTAUR R/B 4.3 20:21:25 10° NW 20:24:52 29° NW 20:24:52 29° NW
